Hourly Weather Daknisa

Today, 26 January, Tuesday

Time Temperature Precipitation Wind Pressure Humidity
00:00 +2°C° 0 mm 2 mps 684 mmHg 44%
01:00 +1°C° 0 mm 3 mps 684 mmHg 43%
02:00 +1°C° 0 mm 3 mps 683 mmHg 43%
03:00 +1°C° 0 mm 3 mps 683 mmHg 42%
04:00 +1°C° 0 mm 3 mps 683 mmHg 42%
05:00 +2°C° 0 mm 2 mps 683 mmHg 42%
06:00 +2°C° 0 mm 2 mps 683 mmHg 41%
07:00 +3°C° 0 mm 2 mps 683 mmHg 43%
08:00 +4°C° 0 mm 2 mps 684 mmHg 45%
09:00 +4°C° 0 mm 2 mps 684 mmHg 47%
10:00 +5°C° 0 mm 2 mps 684 mmHg 54%
11:00 +6°C° 0 mm 2 mps 684 mmHg 60%
12:00 +7°C° 0 mm 2 mps 685 mmHg 66%
13:00 +6°C° 0 mm 2 mps 685 mmHg 68%
14:00 +6°C° 0 mm 2 mps 684 mmHg 69%
15:00 +7°C° 0 mm 1 mps 684 mmHg 70%
16:00 +4°C° 0 mm 2 mps 685 mmHg 67%
17:00 +3°C° 0 mm 2 mps 685 mmHg 63%
18:00 +2°C° 0 mm 2 mps 685 mmHg 59%
19:00 +2°C° 0 mm 2 mps 685 mmHg 58%
20:00 +2°C° 0 mm 2 mps 685 mmHg 58%
21:00 +2°C° 0 mm 2 mps 685 mmHg 57%
22:00 +2°C° 0 mm 2 mps 685 mmHg 55%
23:00 +2°C° 0 mm 2 mps 685 mmHg 54%

Tomorrow, 27 January, Wednesday

Time Temperature Precipitation Wind Pressure Humidity
00:00 +2°C° 0 mm 2 mps 685 mmHg 52%
01:00 +2°C° 0 mm 2 mps 685 mmHg 51%
02:00 +2°C° 0 mm 2 mps 685 mmHg 50%
03:00 +2°C° 0 mm 2 mps 685 mmHg 49%
04:00 +2°C° 0 mm 2 mps 685 mmHg 50%
05:00 +2°C° 0 mm 2 mps 684 mmHg 50%
06:00 +3°C° 0 mm 2 mps 684 mmHg 50%
07:00 +3°C° 0 mm 2 mps 684 mmHg 51%
08:00 +4°C° 0 mm 2 mps 684 mmHg 53%
09:00 +5°C° 0 mm 2 mps 684 mmHg 54%
10:00 +6°C° 0 mm 2 mps 684 mmHg 59%
11:00 +7°C° 0 mm 2 mps 684 mmHg 63%
12:00 +9°C° 0 mm 1 mps 683 mmHg 68%
13:00 +8°C° 0 mm 2 mps 683 mmHg 67%
14:00 +8°C° 0 mm 2 mps 682 mmHg 66%
15:00 +8°C° 0 mm 2 mps 682 mmHg 65%
16:00 +7°C° 0 mm 2 mps 681 mmHg 61%
17:00 +6°C° 0 mm 2 mps 681 mmHg 57%
18:00 +4°C° 0 mm 3 mps 681 mmHg 53%
19:00 +5°C° 0 mm 3 mps 681 mmHg 51%
20:00 +5°C° 0 mm 3 mps 680 mmHg 49%
21:00 +5°C° 0 mm 3 mps 680 mmHg 47%
22:00 +6°C° 0 mm 4 mps 680 mmHg 46%
23:00 +6°C° 0 mm 4 mps 680 mmHg 44%

Day after tomorrow, 28 January, Thursday

Time Temperature Precipitation Wind Pressure Humidity
00:00 +6°C° 0 mm 4 mps 680 mmHg 43%
01:00 +6°C° 0 mm 4 mps 679 mmHg 42%
02:00 +6°C° 0 mm 4 mps 678 mmHg 41%
03:00 +5°C° 0 mm 4 mps 678 mmHg 41%
04:00 +5°C° 0 mm 4 mps 678 mmHg 41%
05:00 +5°C° 0 mm 4 mps 678 mmHg 42%
06:00 +5°C° 0 mm 4 mps 677 mmHg 43%
07:00 +7°C° 0 mm 3 mps 678 mmHg 45%
08:00 +7°C° 0 mm 3 mps 678 mmHg 48%
09:00 +8°C° 0 mm 3 mps 678 mmHg 51%
10:00 +9°C° 0 mm 3 mps 678 mmHg 55%
11:00 +10°C° 0 mm 2 mps 678 mmHg 59%
12:00 +12°C° 0 mm 2 mps 678 mmHg 63%
13:00 +12°C° 0 mm 2 mps 677 mmHg 63%
14:00 +12°C° 0 mm 2 mps 677 mmHg 62%
15:00 +11°C° 0 mm 1 mps 676 mmHg 61%
16:00 +9°C° 0 mm 2 mps 676 mmHg 59%
17:00 +8°C° 0 mm 2 mps 676 mmHg 56%
18:00 +8°C° 0 mm 3 mps 676 mmHg 53%
19:00 +7°C° 0 mm 3 mps 675 mmHg 54%
20:00 +7°C° 0 mm 3 mps 675 mmHg 56%
21:00 +5°C° 0 mm 3 mps 675 mmHg 57%
22:00 +5°C° 0 mm 3 mps 675 mmHg 60%
23:00 +5°C° 0 mm 3 mps 675 mmHg 63%

29 January, Friday

Time Temperature Precipitation Wind Pressure Humidity
00:00 +4°C° 0 mm 3 mps 675 mmHg 66%
01:00 +4°C° 0 mm 3 mps 675 mmHg 67%
02:00 +4°C° 0 mm 3 mps 676 mmHg 68%
03:00 +3°C° 0 mm 3 mps 676 mmHg 68%
04:00 +3°C° 0 mm 3 mps 676 mmHg 68%
05:00 +3°C° 0 mm 3 mps 677 mmHg 68%
06:00 +3°C° 0 mm 3 mps 677 mmHg 68%
07:00 +3°C° 0 mm 3 mps 678 mmHg 68%
08:00 +4°C° 0 mm 3 mps 678 mmHg 67%
09:00 +4°C° 0 mm 3 mps 679 mmHg 66%
10:00 +5°C° 0 mm 3 mps 679 mmHg 65%
11:00 +7°C° 0 mm 3 mps 679 mmHg 63%
12:00 +7°C° 0 mm 4 mps 679 mmHg 62%
13:00 +8°C° 0 mm 3 mps 678 mmHg 62%
14:00 +7°C° 0 mm 3 mps 678 mmHg 63%
15:00 +7°C° 0 mm 3 mps 678 mmHg 64%
16:00 +6°C° 0 mm 2 mps 678 mmHg 67%
17:00 +4°C° 0 mm 2 mps 678 mmHg 71%
18:00 +4°C° 0 mm 1 mps 678 mmHg 74%
19:00 +3°C° 0 mm 1 mps 678 mmHg 75%
20:00 +3°C° 0 mm 1 mps 678 mmHg 75%
21:00 +3°C° 0 mm 1 mps 678 mmHg 76%
22:00 +3°C° 0 mm 1 mps 678 mmHg 77%
23:00 +3°C° 0 mm 1 mps 678 mmHg 78%

30 January, Saturday

Time Temperature Precipitation Wind Pressure Humidity
00:00 +3°C° 0 mm 1 mps 678 mmHg 79%
01:00 +2°C° 0 mm 1 mps 678 mmHg 82%
02:00 +2°C° 0 mm 1 mps 678 mmHg 84%
03:00 +2°C° 0 mm 1 mps 678 mmHg 87%
04:00 +2°C° 0 mm 1 mps 678 mmHg 88%
05:00 +2°C° 0 mm 1 mps 678 mmHg 89%
06:00 +2°C° 0 mm 1 mps 678 mmHg 90%
07:00 +2°C° 0.2 mm 1 mps 679 mmHg 92%
08:00 +2°C° 0.2 mm 1 mps 679 mmHg 93%
09:00 +2°C° 0.2 mm 1 mps 680 mmHg 95%
10:00 +2°C° 0.7 mm 1 mps 680 mmHg 95%
11:00 +1°C° 0.7 mm 2 mps 679 mmHg 95%
12:00 +1°C° 0.7 mm 2 mps 679 mmHg 95%
13:00 +1°C° 0.1 mm 2 mps 679 mmHg 94%
14:00 +2°C° 0.1 mm 1 mps 679 mmHg 92%
15:00 +2°C° 0.1 mm 1 mps 680 mmHg 91%
16:00 +2°C° 0 mm 1 mps 680 mmHg 91%
17:00 +1°C° 0 mm 1 mps 680 mmHg 91%
18:00 0°C° 0 mm 1 mps 680 mmHg 91%
19:00 0°C° 0 mm 1 mps 680 mmHg 86%
20:00 0°C° 0 mm 1 mps 680 mmHg 81%
21:00 -2°C° 0 mm 2 mps 680 mmHg 77%
22:00 -2°C° 0 mm 2 mps 680 mmHg 73%
23:00 -2°C° 0 mm 2 mps 680 mmHg 68%

31 January, Sunday

Time Temperature Precipitation Wind Pressure Humidity
00:00 -2°C° 0 mm 2 mps 679 mmHg 64%
01:00 -2°C° 0 mm 2 mps 679 mmHg 63%
02:00 -2°C° 0 mm 2 mps 679 mmHg 63%
03:00 -2°C° 0 mm 3 mps 679 mmHg 62%
04:00 -2°C° 0 mm 3 mps 678 mmHg 62%
05:00 -2°C° 0 mm 3 mps 678 mmHg 63%
06:00 -1°C° 0 mm 3 mps 677 mmHg 63%
07:00 -1°C° 0 mm 3 mps 677 mmHg 64%
08:00 0°C° 0 mm 3 mps 678 mmHg 65%
09:00 +1°C° 0 mm 3 mps 678 mmHg 65%
10:00 +3°C° 0 mm 2 mps 677 mmHg 65%
11:00 +4°C° 0 mm 2 mps 677 mmHg 65%
12:00 +5°C° 0 mm 2 mps 677 mmHg 65%
13:00 +5°C° 0 mm 2 mps 677 mmHg 68%
14:00 +5°C° 0 mm 2 mps 677 mmHg 70%
15:00 +5°C° 0 mm 2 mps 677 mmHg 73%
16:00 +4°C° 0 mm 2 mps 678 mmHg 73%
17:00 +3°C° 0 mm 2 mps 678 mmHg 74%
18:00 +2°C° 0 mm 2 mps 679 mmHg 74%
19:00 +2°C° 0 mm 2 mps 680 mmHg 73%
20:00 +2°C° 0 mm 2 mps 680 mmHg 71%
21:00 +1°C° 0 mm 2 mps 681 mmHg 70%
22:00 +2°C° 0 mm 1 mps 681 mmHg 68%
23:00 +2°C° 0 mm 1 mps 682 mmHg 67%
Show more

We Need Your Consent

Meteoprog and our Service Providers may store and access personal data such as cookies, device identifiers or other similar technologies on your device and process such data to personalise content and ads, as well as provide social media features and to analyse the traffic.

  • Store and/or access information on your device

    Cookies, device identifiers or other information can be stored or accessed on your device for the purposes indicated above.

  • Personalised ads and content, ad and content measurement, audience insights, and products development

    Ads and content can be personalised based on a profile. More data can be added to better personalise ads and content. Ad and content performance can be measured. Insights about the audience who saw the ads and content can be derived. Such data can be used to develop or improve user’s experience, systems and software.

By clicking ‘I Agree’ you will allow the use of indicated cookies, device identifiers, web beacons or other similar technologies. Your settings can be changed in the browser on your device.

For certain purposes, legitimate interests may be relied on, rather than consent. You can read more about this in our Privacy and Cookie Policy.